Location: Arrien
(42.8963°N, 1.0429°E)
Time: 22:56:19
(UTC+00:00)

Cosmos 1743 - Pass Details

Date: 11 December 2025
Orbit: 399 x 406 km, 82.5° (Epoch: 21 January)

Event Time Altitude Azimuth Distance (km) Brightness Sun altitude
Rises 16:59:42 0° 352° (N) 2,385 5.9 -7.0°
Reaches altitude 10° 17:01:46 10° 354° (N) 1,512 4.9 -7.3°
Maximum altitude 17:05:03 81° 81° (E) 428 2.2 -7.9°
Drops below altitude 10° 17:08:17 10° 170° (S) 1,485 5.2 -8.4°
Sets 17:10:17 0° 171° (S) 2,338 6.2 -8.8°
